View from above orbital plane
|
View from above satellite
|
Ground track
|
The orbit data is extracted from the following two-line orbital elements,
1 38857U 12055A 21024.72280526 .00000024 00000-0 00000-0 0 9991
2 38857 55.0178 155.6916 0002129 242.9114 117.0202 1.70473675 51581
Epoch (UTC): | 24 January 2021 17:20:50 |
Eccentricity: | 0.0002129 |
inclination: | 55.0178° |
perigee height: | 23215 km |
apogee height: | 23228 km |
right ascension of ascending node: | 155.6916° |
argument of perigee: | 242.9114° |
revolutions per day: | 1.70473675 |
mean anomaly at epoch: | 117.0202° |
orbit number at epoch: | 5158 |
The dashed part of the orbit path shows where the satellite is in the earth's shadow,
|
|